Charlotte, MI

5:37 PM EDT on April 27, 2017 (GMT -0400)
Charlotte

Weather History for KFPK - January, 2013

Change the Weather History Date:

Tuesday, January 29, 2013

  Actual Average (KLAN) Record (KLAN)
Temperature  
Mean Temperature 46 °F -  
Max Temperature 57 °F 29 °F 57 °F (2013)
Min Temperature 35 °F 16 °F -28 °F (1867)
Degree Days  
Heating Degree Days 19    
Moisture  
Dew Point 50 °F    
Average Humidity 100    
Maximum Humidity 100    
Minimum Humidity 99    
Precipitation  
Precipitation 0.54 in - - ()
Sea Level Pressure  
Sea Level Pressure 29.69 in    
Wind  
Wind Speed 8 mph (South)    
Max Wind Speed 20 mph    
Max Gust Speed 26 mph    
Visibility 4 miles    
Events Fog , Rain    
Averages and records for this station are not official NWS values.
T = Trace of Precipitation, MM = Missing Value Source: NWS Daily Summary

Daily Weather History Graph

Daily Weather History Graph

Search for Another Location

Airport or City:

Trip Planner

Search our weather history database for the weather conditions in past years. The results will help you decide how hot, cold, wet, or windy it might be!

Date:

Astronomy

Jan. 29, 2013 Rise Set
Actual Time 7:56 AM EST 5:49 PM EST
Civil Twilight 7:26 AM EST 6:19 PM EST
Nautical Twilight 6:52 AM EST 6:53 PM EST
Astronomical Twilight 6:18 AM EST 7:26 PM EST
Moon 8:49 PM EST (1/29) 8:48 AM EST (1/29)
Length of Visible Light 10h 53m
Length of Day
9h 53m
Waning Gibbous, 94% of the Moon is Illuminated
Jan 29
Waning Gibbous
Feb 3
Last Quarter
Feb 10
New
Feb 17
First Quarter
Feb 25
Full

Hourly Weather History & Observations

Time (EST) Temp. Windchill Dew Point Humidity Pressure Visibility Wind Dir Wind Speed Gust Speed Precip Events Conditions
12:15 AM 35.2 °F - 35.2 °F 100% 29.96 in 5.0 mi Calm Calm - N/A   Overcast
12:35 AM 35.2 °F - 35.2 °F 100% 29.96 in 2.0 mi Calm Calm - N/A   Overcast
1:00 AM 35.2 °F 30.3 °F 35.2 °F 100% 29.94 in 0.8 mi SE 5.8 mph - N/A   Overcast
1:15 AM 35.4 °F - 35.4 °F 100% 29.93 in 0.8 mi Calm Calm - N/A   Overcast
1:35 AM 35.6 °F 32.8 °F 35.6 °F 100% 29.91 in 1.0 mi ESE 3.5 mph - N/A   Overcast
1:55 AM 35.6 °F 32.8 °F 35.6 °F 100% 29.91 in 1.2 mi SE 3.5 mph - N/A   Overcast
2:15 AM 35.8 °F 31.9 °F 35.8 °F 100% 29.91 in 1.0 mi SE 4.6 mph - N/A   Overcast
2:35 AM 36.0 °F - 36.0 °F 100% 29.90 in 0.8 mi Calm Calm - N/A   Overcast
2:55 AM 36.1 °F 32.3 °F 36.1 °F 100% 29.89 in 0.5 mi SE 4.6 mph - N/A Fog Fog
3:15 AM 36.5 °F 31.8 °F 36.5 °F 100% 29.87 in 0.5 mi ESE 5.8 mph - N/A Fog Fog
3:55 AM 38.7 °F 34.3 °F 38.7 °F 100% 29.84 in 2.5 mi SSE 5.8 mph - 0.02 in Rain Rain
4:15 AM 40.1 °F - 40.1 °F 100% 29.84 in 5.0 mi Calm Calm - N/A Rain Light Rain
4:35 AM 40.1 °F 33.2 °F 40.1 °F 100% 29.81 in 1.5 mi ESE 11.5 mph - 0.19 in Rain Heavy Rain
5:00 AM 41.0 °F 37.1 °F 41.0 °F 100% 29.80 in 4.0 mi East 5.8 mph - N/A Rain Heavy Rain
5:15 AM 40.3 °F 36.3 °F 40.3 °F 100% 29.78 in 4.0 mi ESE 5.8 mph - N/A   Overcast
5:35 AM 40.5 °F 35.8 °F 40.5 °F 100% 29.78 in 2.5 mi SE 6.9 mph - N/A Rain Light Rain
6:15 AM 41.9 °F 38.2 °F 41.9 °F 100% 29.75 in 1.8 mi SE 5.8 mph - 0.01 in   Overcast
6:35 AM 43.7 °F 41.1 °F 43.7 °F 100% 29.76 in 1.2 mi South 4.6 mph - 0.01 in   Overcast
6:55 AM 45.0 °F 41.8 °F 45.0 °F 100% 29.75 in 2.5 mi SSE 5.8 mph - 0.06 in Rain Light Rain
7:15 AM 48.9 °F - 48.9 °F 100% 29.74 in 5.0 mi South 10.4 mph - 0.01 in Rain Light Rain
7:35 AM 49.1 °F - 49.1 °F 100% 29.73 in 7.0 mi South 10.4 mph 16.1 mph 0.02 in Rain Light Rain
7:55 AM 49.1 °F - 49.1 °F 100% 29.73 in 5.0 mi South 12.7 mph 17.3 mph 0.02 in   Overcast
8:15 AM 49.5 °F - 49.5 °F 100% 29.73 in 1.5 mi South 10.4 mph - N/A   Overcast
8:35 AM 50.0 °F - 50.0 °F 100% 29.73 in 0.8 mi South 11.5 mph - N/A   Overcast
8:55 AM 50.4 °F - 50.4 °F 100% 29.73 in 0.5 mi South 10.4 mph - N/A Fog Fog
9:15 AM 50.7 °F - 50.7 °F 100% 29.72 in 0.5 mi South 10.4 mph - N/A Fog Fog
9:35 AM 51.3 °F - 51.3 °F 100% 29.72 in 0.8 mi South 10.4 mph - N/A   Overcast
9:55 AM 52.9 °F - 52.9 °F 100% 29.72 in 1.0 mi SSW 11.5 mph - N/A   Overcast
10:15 AM 54.3 °F - 54.3 °F 100% 29.71 in 1.5 mi SSW 12.7 mph 19.6 mph N/A   Overcast
10:35 AM 54.5 °F - 54.5 °F 100% 29.72 in 1.5 mi South 11.5 mph 20.7 mph N/A   Overcast
10:55 AM 54.7 °F - 54.7 °F 100% 29.73 in 2.5 mi SSW 12.7 mph 20.7 mph N/A   Overcast
11:15 AM 54.9 °F - 54.9 °F 100% 29.73 in 3.0 mi SSW 13.8 mph 19.6 mph N/A   Overcast
11:35 AM 55.0 °F - 55.0 °F 100% 29.72 in 3.0 mi SSW 16.1 mph 23.0 mph 0.02 in Rain Rain
11:55 AM 55.4 °F - 55.4 °F 100% 29.70 in 4.0 mi SSW 9.2 mph 18.4 mph 0.02 in   Light Drizzle
12:15 PM 55.4 °F - 55.4 °F 100% 29.70 in 5.0 mi South 11.5 mph 17.3 mph N/A   Light Drizzle
12:35 PM 55.4 °F - 55.4 °F 100% 29.69 in 5.0 mi South 11.5 mph 18.4 mph N/A   Light Drizzle
12:55 PM 56.3 °F - 56.3 °F 100% 29.68 in 7.0 mi South 10.4 mph - N/A   Overcast
1:15 PM 55.6 °F - 55.6 °F 100% 29.69 in 10.0 mi South 10.4 mph 19.6 mph N/A   Overcast
1:35 PM 55.6 °F - 55.6 °F 100% 29.66 in 5.0 mi South 12.7 mph 18.4 mph N/A Rain Rain
1:55 PM 55.9 °F - 55.9 °F 100% 29.66 in 5.0 mi SSW 11.5 mph - N/A   Overcast
2:15 PM 55.9 °F - 55.9 °F 100% 29.65 in 5.0 mi SSW 11.5 mph 18.4 mph N/A   Overcast
2:35 PM 56.3 °F - 56.3 °F 100% 29.65 in 4.0 mi SSW 16.1 mph 21.9 mph N/A Rain Rain
2:55 PM 56.3 °F - 56.3 °F 100% 29.65 in 3.0 mi SSW 9.2 mph 17.3 mph 0.01 in Rain Heavy Rain
3:15 PM 56.3 °F - 56.3 °F 100% 29.64 in 2.5 mi South 10.4 mph - 0.03 in Rain Light Rain
3:35 PM 56.1 °F - 56.1 °F 100% 29.62 in 4.0 mi South 10.4 mph 16.1 mph 0.03 in   Overcast
3:55 PM 55.6 °F - 55.6 °F 100% 29.63 in 4.0 mi South 10.4 mph - 0.03 in   Overcast
4:15 PM 55.6 °F - 55.6 °F 100% 29.63 in 4.0 mi South 12.7 mph 18.4 mph N/A Rain Rain
4:55 PM 55.6 °F - 55.6 °F 100% 29.62 in 5.0 mi South 9.2 mph 17.3 mph N/A   Overcast
5:15 PM 55.4 °F - 55.4 °F 100% 29.62 in 5.0 mi South 10.4 mph - N/A   Overcast
5:35 PM 55.4 °F - 55.4 °F 100% 29.61 in 2.0 mi South 13.8 mph - 0.01 in Rain Heavy Rain
5:55 PM 55.8 °F - 55.8 °F 100% 29.61 in 2.5 mi South 12.7 mph 17.3 mph 0.02 in Rain Rain
6:15 PM 55.8 °F - 55.8 °F 100% 29.61 in 3.0 mi South 12.7 mph 20.7 mph N/A   Drizzle
6:35 PM 55.6 °F - 55.6 °F 100% 29.59 in 3.0 mi South 12.7 mph 16.1 mph N/A   Overcast
6:55 PM 55.8 °F - 55.8 °F 100% 29.59 in 3.0 mi South 12.7 mph 19.6 mph 0.01 in   Overcast
7:15 PM 55.6 °F - 55.6 °F 100% 29.57 in 5.0 mi South 13.8 mph 20.7 mph N/A   Overcast
7:35 PM 55.8 °F - 55.8 °F 100% 29.57 in 4.0 mi South 17.3 mph 23.0 mph N/A   Overcast
7:55 PM 55.8 °F - 55.8 °F 100% 29.56 in 5.0 mi South 15.0 mph 21.9 mph N/A   Overcast
8:15 PM 55.8 °F - 55.8 °F 100% 29.54 in 5.0 mi South 15.0 mph 21.9 mph N/A Rain Rain
8:35 PM 55.8 °F - 55.8 °F 100% 29.52 in 7.0 mi South 16.1 mph 21.9 mph N/A   Overcast
8:55 PM 55.9 °F - 55.9 °F 100% 29.51 in 7.0 mi South 16.1 mph 21.9 mph N/A   Overcast
9:15 PM 56.3 °F - 56.3 °F 100% 29.49 in 7.0 mi South 19.6 mph 26.5 mph N/A   Overcast
9:55 PM 56.5 °F - 56.3 °F 99% 29.46 in 7.0 mi South 19.6 mph 26.5 mph N/A   Overcast
10:15 PM 56.8 °F - 56.7 °F 99% 29.44 in 10.0 mi South 17.3 mph 26.5 mph N/A   Overcast
10:35 PM 56.7 °F - 56.5 °F 99% 29.43 in 7.0 mi South 17.3 mph 24.2 mph N/A Rain Light Rain
10:55 PM 56.8 °F - 56.7 °F 99% 29.43 in 4.0 mi South 17.3 mph 21.9 mph 0.03 in Rain Rain
11:15 PM 57.2 °F - 56.8 °F 99% 29.41 in 5.0 mi South 15.0 mph 25.3 mph 0.04 in Rain Rain
11:35 PM 56.8 °F - 56.8 °F 100% 29.39 in 4.0 mi South 12.7 mph - 0.09 in Rain Light Rain
11:55 PM 56.5 °F - 56.5 °F 100% 29.38 in 4.0 mi SSE 10.4 mph - 0.13 in Rain Light Rain